ARIANE 2 DEB, 26727

Orbit data source: Space-Track

ARIANE 2 DEB, 26727 is space debris in HEO originally from a launch on Fri, 27 Jan 1989 UTC launched from the French Guiana (FRGUI). Debris objects in space refer to the collection of defunct objects orbiting the Earth. Examples of debris include non-operational satellites, rocket bodies, and fragments generated from explosions, collisions, or faulty payload assembly.

Loading next visibility...
Identifier
26727, 1989-006E
Orbit
HEO
Country
Flag of FRFR
Related business
Manufacturer
EADS/LV
Mission
Spacecraft
Bus & Motor
Unknown
Mass
Unknown
Launch date (UTC)
1989-01-27 (37 years ago)
Launch vehicle
Unknown
Launch site
French Guiana (FRGUI)
Object type
Payload
Rocket body
Debris
Shape & HBR
Unknown shape, 0.3 m
Radar Cross Section
Medium (>0.1 m² and <1 m²)

Expand to show TLE details & history
Last TLE update: 18 hours ago

TLE from 18 hours ago
0 ARIANE 2 DEB
1 26727U 89006E   25348.87459712  .00000091  00000-0  15909-2 0  9998
2 26727   7.7920 168.9640 7159779 253.1057  28.1298  2.28903076207470
Epoch: 2025-12-14T20:59Z
TLE epoch observation values (Epoch: 2025-12-14T20:59:25.191Z)
Latitude
1.14735°
Longitude
138.71271°
Altitude
10,674.529 km
Speed
5.51 km/s
True Right ascension
11h 49m 23s
True Declination
1° 08' 40"
Sunlit
Object was in daylight at epoch
Visualization orbit readout
Latitude
Unknown
Longitude
Unknown
Altitude
Unknown
Speed
Unknown
Apparent Right ascension
Unknown
Apparent Declination
Unknown
Sunlit
N/A
Visualization observer readout
Local Sidereal Time
13:22:51
Azimuth
Unknown
Elevation
Unknown
Doppler factor
Unknown
Orbital elements
Apogee altitude
35,363.724 km
Perigee altitude
530.816 km
Semi-major axis
24,325.407 km
Eccentricity
0.71598
Inclination
7.792°
RAAN
168.964°
Arg. of periapsis
253.1057°
True anomaly
115.31502°
Mean anomaly
28.1298°
Eccentric anomaly
65.44123°
Mean motion
0.57208 °/min
Orbital period
629.29 mins
BSTAR
0.0015909
Loading maneuver chart data...
Computing Atmospheric mass density...
Loading historical data...
Loading historical data...
Loading historical data...
Loading historical data...
Loading historical data...
Loading historical data...
Loading historical data...

Documentation

Showing up to 5 results
|